星链-1309 (STARLINK-1309 )

导读 | 星芒AI

STARLINK-1309 是 SpaceX Starlink 项目中的第 1309 颗卫星,属于其低轨卫星互联网星座的一部分。该卫星于 2023 年发射,旨在为全球用户提供高速、低延迟的互联网服务。它运行在约 550 公里的近地轨道,采用先进的通信技术,支持宽带连接,尤其服务于偏远和网络基础设施薄弱的地区。Starlink 卫星群由数千颗卫星组成,致力于构建全球覆盖的互联网网络。

基本信息
目录编号:
45414
目录名称:
STARLINK-1309
国际标识:
2020-019BG
轨道中心:
EARTH
卫星名称:
星链-1309
卫星全名:
星链-1309 (STARLINK-1309 )
卫星状态:
在轨 (已飞行2051 天)
发射日期:
2020-03-18 UTC
国别 :
美国 (US)
星等 :
--
轨道信息
数据来源 国际轨道数据 AOE轨道数据
星历时间 2025-10-28T23:09:04+0800
23小时前
查看轨道信息
2025-10-27T02:00:00+0800
2天前
查看轨道信息
半长轴 6925.345km 6925.442km
偏心率 0.0001353 0.000134
轨道倾角 53.055° 53.054°
近地点辐角 87.398° 71.089°
升交点赤经 9.453° 17.899°
平近点角 272.717° 161.030°
近地点 546.273km 546.378km
远地点 548.147km 548.236km
周期 95.592分钟 95.594分钟
每日圈数 15.064013 15.063698
详细信息
固有亮度:
5
最大亮度:
2.5
卫星平台:
Starlink V1.0
覆盖范围:
全球
运营商:
太空探索技术公司
运营商所在国:
美国
制造商(研发单位):
太空探索技术公司
制造商所在国:
美国
使用方式:
暂无
卫星简介
星链(Starlink)计划是由太空探索技术公司(SpaceX)提出的一个巨型低轨卫星互联网星座项目,计划在2019年至2024年间在太空搭建由约1.2万颗卫星组成的“星链”网络,其中1584颗将部署在地球上空550千米处的近地轨道,并从2020年开始工作。该卫星仍在工作。
2D轨道图
3D轨道图
轨道高度分析图
轨道倾角分析图
轨道综合分析图
查看轨道综合分析图